User: anonymous   Login
Location: Unspecified
(0.0000°N, 0.0000°E)
Time: 10:38:32
(UTC+02:00)
Language:

Landsat 4 - Orbit

View from above orbital plane
View from above orbital plane
View from above satellite
View from above satellite

Ground track
Ground track

The orbit data is extracted from the following two-line orbital elements,

1 13367U 82072A   15214.22945766  .00001902  00000-0  11000-3 0  9990
2 13367 098.1819 311.8144 0014208 015.2986 038.8397 15.13598679781329
Epoch (UTC): 02 August 2015 05:30:25
Eccentricity: 0.0014208
inclination: 98.1819°
perigee height: 515 km
apogee height: 535 km
right ascension of ascending node: 311.8144°
argument of perigee: 15.2986°
revolutions per day: 15.13598679
mean anomaly at epoch: 38.8397°
orbit number at epoch: 78132

The dashed part of the orbit path shows where the satellite is in the earth's shadow,  

DLR